This is the latest recevied weather packets stored in our database for station/object WA4TPR. If no packets are shown the sender has not sent any weather packets the latest 10 day(s).
| Time | Temp. | Humidity | Pressure | Rain* | Wind** | Luminosity | Snow |
|---|---|---|---|---|---|---|---|
| 1777640014 | 21.67° C | 99% | 1017 hPa | 0 mm | - | 219 W/m² | - |
| 1777639711 | 21.11° C | 99% | 1017 hPa | 0 mm | - | 252 W/m² | - |
| 1777639408 | 21.11° C | 99% | 1016.8 hPa | 0 mm | - | 183 W/m² | - |
| 1777639102 | 21.11° C | 99% | 1017 hPa | 0 mm | - | 133 W/m² | - |
| 1777638801 | 20.56° C | 99% | 1016.9 hPa | 0 mm | - | 142 W/m² | - |
| 1777638501 | 20.56° C | 99% | 1016.8 hPa | 0 mm | - | 124 W/m² | - |
| 1777638198 | 20.56° C | 99% | 1016.7 hPa | 0 mm | - | 116 W/m² | - |
| 1777637894 | 20.56° C | 99% | 1016.6 hPa | 0 mm | - | 45 W/m² | - |
| 1777637590 | 20.56° C | 99% | 1016.5 hPa | 0 mm | - | 69 W/m² | - |
| 1777637288 | 20.56° C | 99% | 1016.4 hPa | 0 mm | - | 62 W/m² | - |
| 1777636984 | 20.56° C | 99% | 1016.1 hPa | 0 mm | - | 69 W/m² | - |
| 1777636680 | 20.56° C | 99% | 1016.2 hPa | 0 mm | - | 89 W/m² | - |
| 1777636377 | 20° C | 99% | 1016.1 hPa | 0 mm | - | 91 W/m² | - |
| 1777636076 | 20° C | 99% | 1016.4 hPa | 0 mm | - | 71 W/m² | - |
| 1777635773 | 19.44° C | 99% | 1016.2 hPa | 0 mm | - | 62 W/m² | - |
| 1777635470 | 19.44° C | 99% | 1016.1 hPa | 0 mm | - | 48 W/m² | - |
| 1777635167 | 19.44° C | 99% | 1016.2 hPa | 0 mm | - | 38 W/m² | - |
| 1777634862 | 19.44° C | 99% | 1016.2 hPa | 0 mm | - | 29 W/m² | - |
| 1777634560 | 19.44° C | 99% | 1016.3 hPa | 0 mm | - | 25 W/m² | - |
| 1777634257 | 19.44° C | 99% | 1016 hPa | 0 mm | - | 22 W/m² | - |
| 1777633953 | 19.44° C | 99% | 1016.1 hPa | 0 mm | - | 18 W/m² | - |
| 1777633650 | 19.44° C | 99% | 1016.2 hPa | 0 mm | - | 16 W/m² | - |
| 1777633349 | 19.44° C | 99% | 1016.1 hPa | 0 mm | - | 12 W/m² | - |
| 1777633046 | 18.89° C | 99% | 1016.1 hPa | 0 mm | - | 7 W/m² | - |
| 1777632742 | 18.89° C | 99% | 1016.1 hPa | 0 mm | - | 4 W/m² | - |
* Rain latest hour (hover to see other rain measurements)
** Current wind speed in m/s (hover to see current wind gust speed)